Home > Weather > Slough > Past weeks

Flag for United Kingdom Past Weather in Slough, England, United Kingdom — Yesterday and Last 2 Weeks

Now
63 °F

Partly sunny.


Feels Like: 63 °F
Forecast: 58 / 67 °F
Wind: 8 mph from Southwest

Location: London City Airport

Current Time: Jun 30, 2016 at 9:45:36 AM

Latest Report: Jun 30, 2016 at 9:20 AM


Visibility: N/A

Pressure: 29.80 "Hg

Humidity: 77%

Dew Point: 55 °F

Location of SloughLocation

Past Weather in Slough — Graph

°F

Slough Temperature Yesterday

Maximum temperature yesterday: 64 °F (at 11:20 AM)
Minimum temperature yesterday: 54 °F (at 5:20 AM)
Average temperature yesterday: 60 °F

High & Low Weather Summary for the Past Weeks

 TemperatureHumidityPressure
High73 °F (Jun 22, 3:20 PM)100% (Jun 27, 5:50 AM)30.24 "Hg (Jun 27, 5:50 AM)
Low54 °F (Jun 29, 5:20 AM)40% (Jun 28, 2:50 PM)29.42 "Hg (Jun 15, 8:20 AM)
Average63 °F74%29.94 "Hg
* Reported Jun 15 8:20 AM — Jun 30 8:20 AM, Slough, Weather by CustomWeather, © 2016

Note: Actual official high and low records may vary slightly from our data, if they occured in-between our weather recording intervals... More about our weather records

Advertising

Slough Weather History for the Previous 24 Hours

Scroll right to see more
 ConditionsComfort  
Time TempWeatherWind HumidityBarometerVisibility
8:20 AM
Thu, Jun 30
61 °FScattered clouds.7 mph83%29.80 "HgN/A
7:50 AM59 °FScattered clouds.5 mph88%29.80 "HgN/A
7:20 AM59 °FScattered clouds.6 mph88%29.77 "HgN/A
6:50 AM57 °FPartly sunny.7 mph94%29.77 "HgN/A
6:20 AM57 °FSprinkles. Broken clouds.7 mph94%29.77 "HgN/A
5:50 AM57 °FLight rain. Partly sunny.6 mph94%29.77 "HgN/A
5:20 AM57 °FLight rain. Partly cloudy.8 mph94%29.77 "HgN/A
4:50 AM57 °FLight rain. Partly cloudy.7 mph94%29.77 "HgN/A
4:20 AM57 °FLight rain. Passing clouds.7 mph94%29.77 "HgN/A
3:50 AM57 °FSprinkles. Passing clouds.9 mph88%29.77 "Hg6 mi
3:20 AM57 °FSprinkles. Passing clouds.8 mph88%29.77 "HgN/A
2:50 AM57 °FPassing clouds.8 mph94%29.77 "HgN/A
2:20 AM57 °FSprinkles. Partly cloudy.9 mph94%29.77 "Hg6 mi
1:50 AM59 °FSprinkles. Partly cloudy.10 mph88%29.77 "HgN/A
1:20 AM59 °FPassing clouds.10 mph82%29.77 "HgN/A
12:50 AM59 °FPassing clouds.13 mph82%29.77 "HgN/A
12:20 AM59 °FLight rain. Overcast.12 mph88%29.77 "HgN/A
11:50 PM
Wed, Jun 29
59 °FLight rain. Passing clouds.12 mph88%29.77 "HgN/A
11:20 PM59 °FLight rain. Overcast.10 mph88%29.77 "HgN/A
10:50 PM59 °FLight rain. Passing clouds.13 mph88%29.74 "HgN/A
10:20 PM61 °FLight rain. Passing clouds.12 mph83%29.74 "HgN/A
9:50 PM61 °FScattered clouds.13 mph77%29.74 "HgN/A
8:50 PM61 °FPartly sunny.15 mph77%29.74 "HgN/A
8:20 PM61 °FPartly sunny.15 mph83%29.74 "HgN/A
7:50 PM61 °FPartly sunny.14 mph83%29.74 "HgN/A
7:20 PM61 °FPartly sunny.15 mph83%29.74 "HgN/A
6:50 PM61 °FPartly sunny.15 mph83%29.74 "HgN/A
6:20 PM61 °FPartly sunny.15 mph83%29.74 "HgN/A
5:50 PM61 °FBroken clouds.16 mph83%29.74 "HgN/A
5:20 PM61 °FBroken clouds.17 mph77%29.74 "HgN/A
4:50 PM61 °FBroken clouds.16 mph83%29.74 "HgN/A
4:20 PM61 °FBroken clouds.15 mph83%29.77 "HgN/A
3:50 PM61 °FLight rain. Partly sunny.17 mph83%29.77 "HgN/A
3:20 PM61 °FPartly sunny.17 mph83%29.77 "HgN/A
2:50 PM59 °FSprinkles. Partly sunny.17 mph88%29.77 "Hg6 mi
2:20 PM61 °FSprinkles. Broken clouds.17 mph77%29.77 "HgN/A
1:50 PM61 °FLight rain. Partly sunny.17 mph77%29.77 "HgN/A
1:20 PM63 °FSprinkles. Partly sunny.18 mph68%29.77 "HgN/A
12:50 PM63 °FScattered showers. Partly sunny.16 mph68%29.80 "HgN/A
12:20 PM63 °FScattered showers. Partly sunny.17 mph64%29.80 "HgN/A
11:50 AM64 °FPartly sunny.15 mph60%29.80 "HgN/A
11:20 AM64 °FPartly sunny.18 mph60%29.80 "HgN/A
10:50 AM63 °FPartly sunny.16 mph64%29.80 "HgN/A
10:20 AM63 °FScattered clouds.16 mph64%29.83 "HgN/A
9:50 AM63 °FScattered clouds.16 mph64%29.83 "HgN/A
9:20 AM63 °FPassing clouds.13 mph68%29.83 "HgN/A
Weather by CustomWeather, © 2016

See weather overviewHow to use our weather pages